This is the latest recevied weather packets stored in our database for station/object VA3BOO. If no packets are shown the sender has not sent any weather packets the latest 10 day(s).
| Time | Temp. | Humidity | Pressure | Rain* | Wind** | Luminosity | Snow |
|---|---|---|---|---|---|---|---|
| 1777857005 | 7.22° C | 78% | 1008.2 hPa | 0 mm | - | 0 W/m² | - |
| 1777856705 | 7.22° C | 75% | 1008 hPa | 0 mm | - | 0 W/m² | - |
| 1777856405 | 7.22° C | 76% | 1007.9 hPa | 0 mm | - | 0 W/m² | - |
| 1777856105 | 7.22° C | 76% | 1008.2 hPa | 0 mm | - | 0 W/m² | - |
| 1777855805 | 7.22° C | 75% | 1008.3 hPa | 0 mm | - | 0 W/m² | - |
| 1777855505 | 7.22° C | 74% | 1008 hPa | 0 mm | - | 0 W/m² | - |
| 1777855205 | 7.22° C | 74% | 1008 hPa | 0 mm | - | 0 W/m² | - |
| 1777854905 | 7.22° C | 74% | 1008.2 hPa | 0 mm | - | 0 W/m² | - |
| 1777854605 | 7.22° C | 73% | 1008.3 hPa | 0 mm | - | 0 W/m² | - |
| 1777854305 | 7.78° C | 70% | 1008.5 hPa | 0 mm | - | 0 W/m² | - |
| 1777854005 | 7.78° C | 66% | 1008.2 hPa | 0 mm | - | 0 W/m² | - |
| 1777853705 | 7.78° C | 62% | 1008.3 hPa | 0 mm | - | 0 W/m² | - |
| 1777853405 | 8.33° C | 61% | 1008.2 hPa | 0 mm | - | 1 W/m² | - |
| 1777853105 | 8.33° C | 60% | 1008.3 hPa | 0 mm | - | 2 W/m² | - |
| 1777852805 | 8.33° C | 56% | 1008 hPa | 0 mm | - | 3 W/m² | - |
| 1777852505 | 8.33° C | 54% | 1008.2 hPa | 0 mm | - | 4 W/m² | - |
| 1777852205 | 8.33° C | 55% | 1008.2 hPa | 0 mm | - | 5 W/m² | - |
| 1777851905 | 8.33° C | 54% | 1008.2 hPa | 0 mm | - | 7 W/m² | - |
| 1777851605 | 8.33° C | 54% | 1008 hPa | 0 mm | - | 7 W/m² | - |
| 1777851305 | 8.89° C | 53% | 1007.9 hPa | 0 mm | - | 9 W/m² | - |
| 1777851005 | 8.89° C | 54% | 1008.2 hPa | 0 mm | - | 15 W/m² | - |
| 1777850705 | 8.89° C | 54% | 1008.2 hPa | 0 mm | - | 21 W/m² | - |
| 1777850405 | 8.89° C | 54% | 1008.2 hPa | 0 mm | - | 26 W/m² | - |
| 1777850105 | 8.89° C | 52% | 1008 hPa | 0 mm | - | 37 W/m² | - |
| 1777849805 | 9.44° C | 52% | 1008 hPa | 0 mm | - | 34 W/m² | - |
* Rain latest hour (hover to see other rain measurements)
** Current wind speed in m/s (hover to see current wind gust speed)